Theta_e
320 319 318 316 317 322 322 323 324 323 323 324 320 314 317 314 310 310 311 310 311 311 311 311 313 313 314 315 315 316 317 319 321 318 317 315 317 316 315 316 318 319 322 328 335
320 319 318 316 316 319 321 322 323 321 320 322 315 311 310 309 309 310 309 309 310 310 312 311 311 312 313 315 314 314 318 320 319 315 316 315 315 315 314 315 318 324 332 335 336
320 319 318 315 316 318 320 321 322 320 318 316 312 310 309 308 312 312 309 310 311 311 312 312 313 313 313 314 315 314 318 315 314 316 316 315 314 314 311 315 316 323 333 333 335
320 319 317 315 316 317 319 321 321 318 316 314 311 310 309 311 308 312 310 310 310 310 312 313 311 313 313 315 315 316 315 314 315 314 316 315 314 315 314 315 313 319 332 332 332
320 318 316 316 315 317 318 320 319 317 313 313 310 309 309 312 312 311 311 311 309 309 311 312 312 312 314 314 314 315 314 313 314 313 314 316 315 316 315 312 313 319 331 331 332
319 317 316 316 315 317 318 319 318 317 312 311 310 309 311 308 311 311 311 310 309 311 311 312 311 312 312 313 313 313 312 313 313 312 313 316 314 315 314 310 315 323 328 329 330
318 317 316 316 315 317 317 318 318 316 313 311 309 308 310 308 310 312 310 310 310 312 311 312 313 311 312 312 312 312 312 312 312 312 312 312 314 313 312 310 311 315 319 325 329
318 317 316 315 315 316 317 317 317 314 312 310 308 310 308 311 313 312 311 312 312 311 312 312 312 312 312 311 311 311 311 311 312 311 312 312 313 313 309 309 310 309 308 311 318
318 317 316 315 315 316 317 317 316 313 311 309 310 312 309 311 312 312 312 311 311 311 311 311 312 311 312 309 309 310 309 312 312 311 312 312 311 312 308 307 307 306 305 305 307
317 316 315 316 316 316 316 316 313 312 311 309 311 310 308 309 311 313 312 310 310 310 310 312 310 310 309 308 308 310 310 310 311 310 312 311 310 310 310 309 307 305 305 304 305
317 316 316 316 316 316 315 313 312 312 312 309 308 308 307 310 311 311 312 311 310 310 309 311 309 310 309 309 310 309 308 310 309 310 311 310 310 310 308 308 306 305 306 306 305
316 316 316 316 316 316 313 310 308 308 311 309 308 309 311 310 310 309 312 310 310 309 310 310 310 309 309 309 310 310 309 310 310 310 309 311 309 308 308 308 307 307 306 306 307
316 316 316 315 316 315 311 309 309 308 308 308 308 309 310 310 310 310 310 310 310 309 310 309 310 310 310 309 309 309 309 308 310 310 309 309 306 307 307 308 308 306 307 306 306
316 315 315 315 315 313 311 309 308 308 308 309 308 309 311 311 311 310 311 310 310 309 309 309 309 309 310 310 308 309 308 308 309 306 306 307 305 305 308 307 307 307 306 306 306
316 315 315 314 315 311 309 309 308 306 311 308 309 309 310 309 310 310 309 309 309 310 309 310 309 310 310 310 308 309 308 308 309 309 307 308 305 304 305 309 308 307 306 305 305
316 315 315 314 314 311 310 309 308 309 312 309 308 310 312 310 310 309 309 308 308 310 308 309 308 309 309 308 308 307 308 307 306 305 306 306 305 304 306 307 307 308 309 306 308
315 315 314 314 314 311 310 308 310 309 308 309 308 310 309 311 310 309 308 308 308 309 309 308 309 308 307 308 307 307 306 308 308 308 306 305 307 306 307 306 306 307 308 308 307
315 315 314 314 313 311 309 308 307 308 309 308 309 309 308 310 310 309 308 309 307 307 308 309 309 308 308 308 308 307 306 309 308 311 308 305 307 306 305 306 307 306 306 306 307
315 314 313 313 312 311 308 310 308 308 310 309 309 309 308 309 310 309 308 309 308 305 308 308 309 307 307 309 308 308 309 307 307 296 306 306 305 306 306 307 306 305 307 307 307
315 313 313 312 311 309 309 309 313 308 309 308 309 307 307 308 309 308 308 307 307 307 306 308 310 309 308 308 308 308 306 308 306 303 304 305 306 305 309 306 305 306 304 306 306
314 315 312 312 311 309 310 308 312 310 308 309 309 309 307 308 308 308 309 307 307 307 306 307 309 310 308 308 308 307 308 307 306 307 307 305 304 302 306 306 305 303 303 304 306
309 309 311 311 311 309 306 309 311 312 312 312 309 310 307 308 310 308 308 307 307 307 308 308 309 309 309 307 306 307 307 306 306 305 304 308 307 306 305 309 306 306 304 304 305
306 305 305 311 311 310 307 311 311 313 314 313 312 310 308 309 310 310 309 308 306 308 308 307 307 302 309 309 309 308 308 307 305 305 307 305 306 305 306 307 308 307 306 305 304
302 307 303 310 306 308 308 311 312 312 314 314 312 311 310 309 310 310 311 311 309 308 311 309 308 306 307 307 308 309 308 307 307 308 307 306 307 307 308 309 310 308 306 304 304
297 301 302 308 308 308 308 310 313 313 313 314 315 312 311 311 312 311 313 310 309 308 309 309 303 308 306 307 308 308 308 308 308 308 308 307 307 307 305 306 305 306 304 304 304
299 301 302 306 308 309 310 311 312 314 313 315 314 313 312 311 312 312 312 310 310 310 309 308 304 307 305 308 308 308 308 307 308 308 307 307 307 305 306 304 306 306 305 304 304
294 296 304 309 309 311 311 313 312 313 311 313 313 314 313 313 311 311 311 311 311 309 309 306 304 303 308 309 309 305 306 308 308 307 308 308 308 307 306 306 304 305 304 305 305
Wind_Speed
40 37 35 35 33 30 30 29 29 27 28 27 22 19 18 18 16 13 8 10 15 7 9 10 10 8 8 1 2 1 3 3 4 6 6 5 4 3 3 7 4 4 3 14 31
40 39 37 36 34 33 30 30 28 28 26 26 23 21 19 17 11 12 18 16 10 15 13 16 6 11 3 4 0 3 2 5 5 6 7 7 8 7 5 5 4 6 10 27 29
42 41 38 36 35 34 32 30 29 28 27 25 23 20 18 16 4 9 26 15 17 14 14 15 12 4 4 4 3 4 4 4 7 3 10 10 5 5 9 3 7 13 11 16 24
45 43 38 36 34 35 33 31 31 30 28 24 23 22 20 15 8 3 15 22 17 16 12 8 5 3 4 6 4 1 4 2 3 5 6 8 7 6 6 5 7 14 20 16 11
45 42 38 37 34 33 33 31 30 31 28 25 22 21 18 2 6 2 10 25 17 17 17 7 6 6 5 4 7 3 1 4 3 6 5 5 3 3 5 5 7 16 16 13 14
50 44 39 38 33 33 32 29 30 30 31 28 28 26 7 5 4 6 12 21 18 21 13 9 7 7 6 5 6 4 4 3 3 3 4 5 1 2 5 6 10 15 12 12 16
51 43 44 40 33 32 31 30 28 29 29 29 28 25 0 9 6 10 12 20 18 20 6 15 8 5 2 5 3 6 5 3 2 3 1 3 1 6 2 9 11 11 10 10 16
50 50 47 42 36 31 29 29 27 28 27 27 26 11 4 8 10 12 15 14 11 12 8 12 5 3 4 2 4 6 5 3 2 6 1 3 6 7 8 9 10 10 9 9 10
51 51 47 44 38 32 29 27 26 25 24 24 17 5 5 12 11 16 18 15 12 6 4 8 4 4 3 7 3 1 4 4 1 5 3 2 6 3 5 7 8 8 9 9 9
52 51 49 45 41 35 31 28 27 26 21 18 3 2 5 6 10 17 16 24 6 6 4 3 3 4 2 3 6 5 5 4 5 5 3 3 7 6 3 5 8 8 8 8 10
53 53 51 47 44 42 37 30 8 4 13 6 9 4 12 13 17 10 16 18 7 4 5 4 4 7 9 8 4 7 6 6 0 2 4 6 7 9 7 5 8 9 8 8 9
54 54 50 49 47 47 44 7 15 13 9 3 6 1 3 10 6 6 17 6 6 6 5 3 5 8 8 6 4 3 6 4 2 0 2 3 9 9 7 8 8 10 9 10 6
56 54 49 51 48 44 37 10 18 39 6 2 3 4 3 3 5 11 13 6 8 9 7 6 7 8 8 7 8 3 6 5 5 2 3 2 7 7 8 7 6 9 8 9 11
55 54 53 53 38 37 20 17 29 13 4 4 5 4 4 3 4 6 15 6 6 13 10 6 6 11 6 5 6 5 4 6 9 4 3 2 5 6 5 8 7 12 10 10 10
57 57 57 57 28 23 36 19 35 1 8 13 5 8 6 5 10 4 3 1 9 7 7 7 8 8 6 8 7 5 6 7 4 4 2 2 1 7 5 4 7 10 10 9 8
60 60 57 39 28 38 27 17 11 3 7 9 8 9 9 4 1 4 4 0 3 5 5 3 0 2 6 4 7 8 8 9 6 4 2 6 6 5 5 8 6 3 5 7 9
61 61 53 33 18 40 28 11 3 5 6 8 7 11 11 6 4 3 7 6 7 7 4 3 3 2 4 9 6 7 6 3 2 2 6 3 4 7 6 8 7 7 6 7 8
58 60 42 18 43 39 20 9 5 6 7 3 8 16 10 11 2 7 10 10 5 6 4 6 2 6 2 7 9 9 8 6 7 5 4 3 7 6 9 5 4 6 7 7 7
57 45 32 34 51 32 11 15 10 10 8 9 9 18 5 10 8 6 9 19 9 8 7 5 2 2 3 2 10 5 5 5 7 3 3 5 7 8 9 8 6 4 6 7 8
37 26 25 41 47 18 12 11 4 7 10 17 7 7 8 19 6 8 15 9 6 8 3 4 5 2 1 2 2 5 7 2 3 4 3 5 6 7 4 11 5 7 9 8 6
22 10 27 41 32 9 16 7 4 2 17 8 7 7 9 14 7 10 15 5 10 13 6 5 5 1 3 7 7 3 3 2 5 5 5 1 7 7 10 8 10 10 6 8 9
4 4 34 46 13 12 10 6 4 4 3 4 5 6 12 17 6 10 11 9 15 15 15 5 6 4 8 3 5 3 5 6 5 4 3 4 10 2 5 3 5 3 7 6 5
6 3 7 40 15 19 6 4 4 4 3 5 4 3 6 11 6 5 7 2 14 16 19 9 3 3 3 3 3 4 4 3 4 3 8 6 10 4 3 5 5 4 5 6 7
4 5 1 12 2 24 14 6 4 3 3 4 6 5 8 13 3 8 5 1 2 6 9 11 4 9 11 5 7 7 8 11 6 4 6 9 13 2 3 3 1 3 6 8 8
2 2 1 11 11 26 17 16 9 6 1 4 3 9 12 7 5 6 5 4 4 2 5 7 6 5 4 6 6 5 9 13 16 15 8 16 16 17 7 6 7 6 6 7 8
2 3 0 7 18 24 20 17 16 9 8 7 8 7 10 10 6 11 9 5 5 3 4 1 1 4 3 6 6 3 8 11 16 8 13 4 19 8 4 3 2 8 8 8 9
4 2 1 11 21 19 19 20 23 15 3 7 10 7 8 3 12 8 9 8 6 7 4 4 5 4 3 1 6 8 9 10 6 7 10 14 27 2 3 8 8 8 10 13 14
Wind_Direction
214 207 205 209 211 206 201 204 203 201 199 197 193 195 184 181 187 193 221 205 205 164 182 178 204 178 131 136 161 14 84 216 233 165 175 162 115 35 136 104 58 33 118 154 152
211 205 207 206 208 210 203 201 202 198 201 192 188 190 181 173 173 226 220 211 201 213 184 173 183 171 121 168 179 116 142 222 215 153 163 158 140 147 101 108 68 61 81 139 151
212 204 207 205 204 208 203 199 198 199 197 193 189 184 176 155 121 237 223 204 206 185 181 187 178 173 147 136 185 199 203 303 342 76 141 158 143 158 120 177 183 155 155 149 157
209 205 205 206 203 206 204 195 195 195 196 191 185 177 163 160 174 213 200 200 199 192 178 216 166 187 143 153 204 239 252 341 7 4 125 155 138 142 146 198 195 162 162 157 164
200 202 203 201 201 201 198 193 191 190 192 189 181 169 150 177 240 222 182 192 195 185 190 184 156 156 165 204 127 188 244 59 17 57 66 127 111 144 153 138 113 144 159 164 174
198 196 199 198 194 199 192 191 189 187 184 184 177 178 159 190 197 179 174 181 187 183 193 174 191 192 182 185 147 176 118 108 63 34 46 112 89 130 200 146 114 152 169 174 180
195 191 197 190 189 195 192 186 187 183 182 183 177 172 266 212 195 165 169 179 190 184 174 196 219 176 156 125 179 125 101 76 158 181 136 111 3 232 179 161 145 167 182 189 198
195 190 192 186 178 190 187 181 182 178 176 177 172 164 226 182 178 162 154 155 182 191 251 197 142 121 104 115 60 121 87 130 276 150 286 112 247 252 220 163 179 186 199 197 214
188 187 185 180 170 179 179 174 171 166 166 164 162 181 226 162 169 169 160 153 149 157 135 144 105 128 75 121 56 52 162 151 272 206 115 143 250 297 172 171 201 208 216 219 225
182 186 181 173 162 168 166 164 152 146 148 148 189 167 172 196 159 163 166 149 124 108 51 103 97 119 77 93 180 162 141 160 182 222 130 153 251 273 320 175 225 239 248 230 218
179 182 177 166 160 159 154 141 132 127 183 188 176 248 152 149 142 164 167 151 109 103 156 210 127 177 184 185 182 152 167 142 88 262 144 209 257 256 261 224 244 242 239 248 235
176 177 174 160 160 159 157 191 169 143 144 333 174 105 91 133 118 178 157 133 125 155 149 76 198 203 178 197 164 133 154 131 90 287 154 200 260 257 243 229 203 222 233 235 243
174 173 171 159 158 158 165 204 163 139 120 54 83 138 176 113 133 180 155 156 151 160 167 147 213 194 170 169 155 176 162 170 150 136 5 19 294 253 251 240 227 218 210 216 215
173 168 169 158 155 163 179 167 166 148 98 174 169 213 140 187 118 188 175 147 157 184 155 176 230 184 150 163 131 144 137 127 122 103 209 129 271 294 243 247 212 234 219 221 219
172 168 168 165 152 171 176 178 185 63 147 157 168 160 153 163 135 213 141 37 164 166 133 207 156 153 155 170 143 189 138 132 119 96 84 260 48 267 278 247 244 233 231 226 233
167 169 166 161 156 169 170 170 153 89 192 176 147 163 144 159 81 132 130 30 148 114 56 128 169 97 157 80 121 147 84 45 47 75 299 231 178 267 217 215 239 208 244 182 144
166 164 162 159 161 165 159 135 150 158 157 162 164 159 157 145 116 130 152 173 157 124 136 81 54 347 113 83 6 103 89 44 27 348 225 7 239 242 255 241 199 192 174 161 149
164 163 163 160 158 169 159 146 156 185 177 145 136 144 166 139 107 162 138 186 249 117 128 146 187 170 191 153 174 167 163 158 181 196 228 10 238 254 245 236 223 186 185 155 143
159 158 157 154 163 164 161 180 191 170 144 123 99 151 154 181 136 142 189 193 192 175 141 131 172 54 82 110 147 219 196 166 106 34 71 231 292 287 257 248 221 172 128 167 166
155 148 162 160 161 159 173 182 154 171 116 139 141 179 161 175 135 155 170 196 189 185 121 158 117 9 141 155 66 163 154 102 10 122 252 279 271 237 277 251 251 215 203 197 188
146 148 159 159 148 164 188 195 143 151 137 142 151 148 169 177 138 176 178 189 178 198 126 143 103 268 136 212 157 126 178 124 122 153 169 216 260 224 212 213 234 246 200 192 196
127 126 155 152 160 190 182 179 129 155 101 132 120 118 159 172 147 177 183 198 187 169 197 173 119 164 197 255 206 138 184 153 163 234 214 165 254 244 137 129 180 217 198 190 176
112 114 179 165 176 186 160 154 171 139 154 144 117 134 140 154 134 160 183 356 174 173 178 174 181 77 56 334 354 189 171 188 122 79 212 146 256 360 91 67 47 127 141 154 147
114 127 354 184 73 166 174 165 128 44 132 112 113 100 111 156 113 172 139 110 31 151 147 151 146 180 192 191 149 178 192 202 172 190 196 232 261 256 75 56 107 169 177 175 185
56 111 218 171 188 173 172 162 159 158 112 131 85 167 150 141 126 150 131 131 47 82 135 146 163 125 135 118 125 168 187 196 207 211 188 251 248 256 217 254 244 216 179 192 209
91 130 74 118 155 165 175 184 177 146 150 169 141 163 159 156 167 159 138 147 175 64 108 28 96 99 343 143 149 201 204 204 218 205 243 276 270 104 168 126 208 224 203 221 232
36 327 108 143 160 164 187 170 182 143 354 137 154 130 117 96 90 75 78 71 128 134 124 104 122 91 214 124 73 288 184 198 192 194 212 226 247 55 250 234 248 233 212 218 227